W7KKE-3 Weather Reports


time (UTC)temp
C
wind
direction
speed
KPH
gust
KPH
rain 1hr
cm
rain 24hr
cm
rain mn
cm
humidity
%
barometer
mb
20260831124825 12 91 0.0 4.8 0.00 0.00 0.00 85 1007.5
20260831123825 12 105 1.6 3.2 0.00 0.00 0.00 85 1007.5
20260831123326 12 0 0.0 0.0 0.00 0.00 0.00 85 1007.6
20260831122826 12 0 0.0 0.0 0.00 0.00 0.00 85 1007.7
20260831122325 12 0 0.0 4.8 0.00 0.00 0.00 85 1007.7
20260831121825 12 85 0.0 4.8 0.00 0.00 0.00 85 1007.8
20260831121326 12 107 1.6 4.8 0.00 0.00 0.00 85 1007.7
20260831120825 12 84 4.8 4.8 0.00 0.00 0.00 84 1007.8
20260831120325 13 93 4.8 4.8 0.00 0.00 0.00 84 1007.8
20260831115826 13 92 3.2 3.2 0.00 0.00 0.00 84 1007.9
20260831115325 13 103 1.6 8.0 0.00 0.00 0.00 84 1007.9
20260831114825 13 106 0.0 8.0 0.00 0.00 0.00 84 1007.9
20260831113825 13 91 6.4 6.4 0.00 0.00 0.00 84 1007.9
20260831113325 13 103 6.4 6.4 0.00 0.00 0.00 84 1007.9
20260831112826 13 100 3.2 6.4 0.00 0.00 0.00 84 1008.0
20260831112325 13 98 3.2 6.4 0.00 0.00 0.00 84 1008.0
20260831111825 13 106 3.2 4.8 0.00 0.00 0.00 84 1008.1
20260831110825 13 0 0.0 3.2 0.00 0.00 0.00 84 1008.1
20260831110325 13 91 0.0 3.2 0.00 0.00 0.00 84 1008.2
20260831105826 13 0 1.6 1.6 0.00 0.00 0.00 84 1008.2
20260831105325 13 0 0.0 3.2 0.00 0.00 0.00 83 1008.2
20260831104825 13 91 0.0 3.2 0.00 0.00 0.00 83 1008.2
20260831104326 13 102 1.6 3.2 0.00 0.00 0.00 83 1008.1
20260831103825 13 99 1.6 3.2 0.00 0.00 0.00 83 1008.1
20260831103325 13 88 1.6 1.6 0.00 0.00 0.00 83 1008.2
20260831102826 13 75 0.0 3.2 0.00 0.00 0.00 83 1008.2
20260831102326 13 86 1.6 3.2 0.00 0.00 0.00 83 1008.2
20260831101825 13 86 1.6 3.2 0.00 0.00 0.00 83 1008.2
20260831101326 13 0 0.0 0.0 0.00 0.00 0.00 83 1008.3
20260831100825 13 0 0.0 0.0 0.00 0.00 0.00 83 1008.4
20260831100325 13 0 0.0 0.0 0.00 0.00 0.00 83 1008.5
20260831095826 13 0 0.0 0.0 0.00 0.00 0.00 83 1008.5
20260831094825 13 102 3.2 6.4 0.00 0.00 0.00 83 1008.4
20260831094326 13 113 4.8 6.4 0.00 0.00 0.00 83 1008.5
20260831093825 13 106 4.8 6.4 0.00 0.00 0.00 83 1008.6
20260831093326 13 93 3.2 6.4 0.00 0.00 0.00 83 1008.6
20260831092826 13 89 3.2 6.4 0.00 0.00 0.00 82 1008.7
20260831092325 13 100 3.2 6.4 0.00 0.00 0.00 82 1008.7
20260831091825 13 102 4.8 4.8 0.00 0.00 0.00 82 1008.9
20260831091326 13 117 4.8 6.4 0.00 0.00 0.00 82 1008.9
20260831090825 13 106 4.8 6.4 0.00 0.00 0.00 82 1009.0
20260831090325 13 103 3.2 6.4 0.00 0.00 0.00 82 1009.0
20260831085826 13 91 4.8 4.8 0.00 0.00 0.00 82 1009.0
20260831085325 14 92 3.2 3.2 0.00 0.00 0.00 82 1009.1
20260831084825 14 107 3.2 3.2 0.00 0.00 0.00 82 1009.2
20260831084326 14 102 3.2 3.2 0.00 0.00 0.00 82 1009.3
20260831083825 14 0 0.0 0.0 0.00 0.00 0.00 82 1009.3
20260831083325 14 79 0.0 3.2 0.00 0.00 0.00 82 1009.4
20260831082826 14 105 0.0 3.2 0.00 0.00 0.00 81 1009.4
20260831082326 14 91 3.2 3.2 0.00 0.00 0.00 81 1009.3
20260831081825 14 89 3.2 4.8 0.00 0.00 0.00 81 1009.3
20260831081448 14 91 4.8 4.8 0.00 0.00 0.00 81 1009.4
20260831081326 14 91 4.8 4.8 0.00 0.00 0.00 81 1009.4
20260831080825 14 119 3.2 4.8 0.00 0.00 0.00 81 1009.5
20260831080327 14 0 0.0 0.0 0.00 0.00 0.00 81 1009.5
20260831075826 14 0 0.0 3.2 0.00 0.00 0.00 81 1009.7
20260831075326 14 86 0.0 3.2 0.00 0.00 0.00 81 1009.7
20260831074825 14 88 3.2 3.2 0.00 0.00 0.00 81 1009.7
20260831074326 14 107 1.6 6.4 0.00 0.00 0.00 81 1009.7
20260831073325 15 100 3.2 6.4 0.00 0.00 0.00 81 1009.7
20260831072826 15 103 3.2 4.8 0.00 0.00 0.00 81 1009.7
20260831072325 15 99 3.2 6.4 0.00 0.00 0.00 81 1009.8
20260831071825 15 103 3.2 6.4 0.00 0.00 0.00 81 1009.9
20260831071326 15 110 3.2 6.4 0.00 0.00 0.00 81 1009.9
20260831070825 15 105 4.8 6.4 0.00 0.00 0.00 81 1010.0
20260831070325 15 114 3.2 4.8 0.00 0.00 0.00 81 1010.1
20260831065826 14 0 1.6 1.6 0.00 0.00 0.00 80 1010.1
20260831065325 14 0 0.0 0.0 0.00 0.00 0.00 80 1010.2
20260831064825 15 0 0.0 1.6 0.00 0.00 0.00 80 1010.2
20260831064326 15 0 0.0 1.6 0.00 0.00 0.00 80 1010.2
20260831063825 14 33 0.0 1.6 0.00 0.00 0.00 80 1010.3
20260831063325 14 71 0.0 0.0 0.00 0.00 0.00 80 1010.3
20260831062826 14 89 0.0 4.8 0.00 0.00 0.00 80 1010.5
20260831062325 15 100 1.6 4.8 0.00 0.00 0.00 79 1010.4
20260831061825 15 88 1.6 4.8 0.00 0.00 0.00 79 1010.5
20260831061326 15 114 3.2 3.2 0.00 0.00 0.00 79 1010.6
20260831060825 15 0 0.0 0.0 0.00 0.00 0.00 79 1010.5
20260831060325 15 0 0.0 4.8 0.00 0.00 0.00 79 1010.6
20260831055826 15 0 0.0 4.8 0.00 0.00 0.00 79 1010.7
20260831055325 15 95 0.0 4.8 0.00 0.00 0.00 79 1010.8
20260831054825 15 98 3.2 3.2 0.00 0.00 0.00 79 1010.8
20260831054326 15 109 1.6 4.8 0.00 0.00 0.00 78 1010.7
20260831053825 15 82 3.2 4.8 0.00 0.00 0.00 78 1010.8
20260831053325 15 99 3.2 4.8 0.00 0.00 0.00 78 1010.9
20260831052826 15 93 4.8 4.8 0.00 0.00 0.00 78 1010.9
20260831052325 15 114 3.2 4.8 0.00 0.00 0.00 78 1011.0
20260831051825 15 96 3.2 4.8 0.00 0.00 0.00 77 1011.0
20260831051326 15 86 3.2 4.8 0.00 0.00 0.00 77 1011.1
20260831050825 15 102 3.2 6.4 0.00 0.00 0.00 77 1011.2
20260831050325 15 109 3.2 6.4 0.00 0.00 0.00 77 1011.2
20260831045826 15 117 4.8 6.4 0.00 0.00 0.00 77 1011.2
20260831045325 15 96 3.2 4.8 0.00 0.00 0.00 77 1011.3
20260831044825 15 99 3.2 4.8 0.00 0.00 0.00 77 1011.3
20260831044326 16 93 3.2 4.8 0.00 0.00 0.00 76 1011.5
20260831043825 15 84 1.6 3.2 0.00 0.00 0.00 76 1011.5
20260831043325 15 105 1.6 4.8 0.00 0.00 0.00 75 1011.5
20260831042826 16 85 3.2 4.8 0.00 0.00 0.00 75 1011.5
20260831042325 16 107 3.2 4.8 0.00 0.00 0.00 75 1011.5
20260831041825 16 98 3.2 4.8 0.00 0.00 0.00 75 1011.5
20260831041326 16 100 3.2 4.8 0.00 0.00 0.00 75 1011.5
20260831040825 16 98 1.6 4.8 0.00 0.00 0.00 74 1011.5
20260831040325 16 100 3.2 4.8 0.00 0.00 0.00 74 1011.5
20260831035826 16 75 1.6 3.2 0.00 0.00 0.00 74 1011.6
20260831035325 16 82 0.0 8.0 0.00 0.00 0.00 74 1011.6
20260831034826 16 112 1.6 8.0 0.00 0.00 0.00 74 1011.6
20260831034326 16 36 3.2 8.0 0.00 0.00 0.00 74 1011.6
20260831033825 17 102 3.2 3.2 0.00 0.00 0.00 73 1011.6
20260831033325 17 100 0.0 3.2 0.00 0.00 0.00 73 1011.6
20260831032826 17 291 0.0 14.5 0.00 0.00 0.00 73 1011.6
20260831032401 17 344 1.6 14.5 0.00 0.00 0.00 73 1011.6
20260831032325 17 344 1.6 14.5 0.00 0.00 0.00 73 1011.6
20260831031825 17 322 6.4 14.5 0.00 0.00 0.00 73 1011.6
20260831031326 17 331 4.8 8.0 0.00 0.00 0.00 72 1011.6
20260831030825 17 292 1.6 11.3 0.00 0.00 0.00 72 1011.7
20260831030325 17 334 4.8 11.3 0.00 0.00 0.00 72 1011.6
20260831025826 17 338 1.6 11.3 0.00 0.00 0.00 71 1011.7
20260831025325 17 22 8.0 9.7 0.00 0.00 0.00 71 1011.7
20260831024825 17 319 4.8 16.1 0.00 0.00 0.00 71 1011.7
20260831024326 18 337 6.4 16.1 0.00 0.00 0.00 71 1011.8
20260831023825 18 350 8.0 16.1 0.00 0.00 0.00 70 1011.7
20260831023325 18 322 11.3 20.9 0.00 0.00 0.00 70 1011.8
20260831022826 18 347 11.3 20.9 0.00 0.00 0.00 70 1011.8
20260831022325 18 317 11.3 20.9 0.00 0.00 0.00 70 1011.9
20260831021825 18 322 9.7 19.3 0.00 0.00 0.00 69 1011.9
20260831020825 18 338 11.3 19.3 0.00 0.00 0.00 69 1012.0
20260831020325 18 341 11.3 16.1 0.00 0.00 0.00 69 1012.1
20260831015826 18 324 8.0 17.7 0.00 0.00 0.00 68 1012.1
20260831015325 18 336 9.7 17.7 0.00 0.00 0.00 68 1012.1
20260831014825 18 317 11.3 17.7 0.00 0.00 0.00 68 1012.1
20260831014326 18 336 9.7 25.7 0.00 0.00 0.00 67 1012.1
20260831013825 18 329 16.1 25.7 0.00 0.00 0.00 67 1012.2
20260831013325 18 331 14.5 25.7 0.00 0.00 0.00 66 1012.4
20260831012826 19 337 14.5 24.1 0.00 0.00 0.00 66 1012.4
20260831012325 19 345 14.5 32.2 0.00 0.00 0.00 66 1012.4
20260831011825 19 7 12.9 32.2 0.00 0.00 0.00 67 1012.5
20260831011327 19 347 14.5 32.2 0.00 0.00 0.00 66 1012.6
20260831010825 19 331 11.3 25.7 0.00 0.00 0.00 67 1012.6
20260831010325 19 317 14.5 22.5 0.00 0.00 0.00 67 1012.7
20260831005826 19 323 12.9 30.6 0.00 0.00 0.00 67 1012.7
20260831005325 19 345 17.7 30.6 0.00 0.00 0.00 67 1012.8
20260831004825 19 316 14.5 30.6 0.00 0.00 0.00 67 1012.9
20260831004327 19 324 16.1 29.0 0.00 0.00 0.00 67 1013.0
20260831003825 19 312 16.1 35.4 0.00 0.00 0.00 67 1013.0
20260831003325 19 322 16.1 35.4 0.00 0.00 0.00 67 1013.1
20260831002826 19 320 19.3 35.4 0.00 0.00 0.00 66 1013.2
20260831002325 19 323 17.7 33.8 0.00 0.00 0.00 66 1013.3
20260831001825 19 331 17.7 32.2 0.00 0.00 0.00 66 1013.3
20260831001326 19 317 17.7 32.2 0.00 0.00 0.00 66 1013.2
20260831000825 19 331 22.5 30.6 0.00 0.00 0.00 66 1013.2
20260831000325 20 330 19.3 30.6 0.00 0.00 0.00 66 1013.3
20260830235826 19 329 17.7 30.6 0.00 0.00 0.00 66 1013.4
20260830235325 20 319 19.3 35.4 0.00 0.00 0.00 66 1013.3
20260830234825 20 316 20.9 35.4 0.00 0.00 0.00 66 1013.5
20260830234326 19 344 19.3 35.4 0.00 0.00 0.00 66 1013.5
20260830233825 19 309 19.3 32.2 0.00 0.00 0.00 66 1013.5
20260830233325 20 322 20.9 32.2 0.00 0.00 0.00 66 1013.6
20260830232826 20 322 17.7 32.2 0.00 0.00 0.00 67 1013.6
20260830232325 19 319 17.7 37.0 0.00 0.00 0.00 67 1013.7
20260830231825 19 323 16.1 37.0 0.00 0.00 0.00 67 1013.7
20260830231326 19 329 20.9 37.0 0.00 0.00 0.00 67 1013.8
20260830230825 20 308 22.5 35.4 0.00 0.00 0.00 67 1013.9
20260830230325 20 313 20.9 35.4 0.00 0.00 0.00 67 1013.9
20260830225826 20 333 24.1 38.6 0.00 0.00 0.00 67 1014.0
20260830225325 20 324 22.5 38.6 0.00 0.00 0.00 67 1014.0
20260830224825 20 309 24.1 38.6 0.00 0.00 0.00 67 1014.1
20260830224326 20 320 27.4 38.6 0.00 0.00 0.00 67 1014.2
20260830223825 20 341 20.9 38.6 0.00 0.00 0.00 67 1014.2
20260830223325 20 336 22.5 40.2 0.00 0.00 0.00 67 1014.3
20260830222826 20 319 24.1 40.2 0.00 0.00 0.00 66 1014.3
20260830222325 20 344 22.5 40.2 0.00 0.00 0.00 67 1014.4
20260830221825 20 313 20.9 38.6 0.00 0.00 0.00 67 1014.5
20260830221326 20 308 24.1 35.4 0.00 0.00 0.00 67 1014.5
20260830220825 20 326 22.5 35.4 0.00 0.00 0.00 68 1014.5
20260830220325 20 334 19.3 35.4 0.00 0.00 0.00 68 1014.6
20260830215826 20 308 17.7 33.8 0.00 0.00 0.00 69 1014.7
20260830215326 20 324 17.7 35.4 0.00 0.00 0.00 69 1014.8
20260830214825 20 333 22.5 35.4 0.00 0.00 0.00 69 1014.8
20260830214327 20 331 19.3 35.4 0.00 0.00 0.00 69 1014.9
20260830213825 20 310 22.5 35.4 0.00 0.00 0.00 69 1015.0
20260830213325 20 330 20.9 35.4 0.00 0.00 0.00 69 1014.9
20260830212826 20 306 19.3 35.4 0.00 0.00 0.00 68 1014.9
20260830212325 20 340 19.3 37.0 0.00 0.00 0.00 68 1014.9
20260830211825 20 336 19.3 37.0 0.00 0.00 0.00 69 1014.9
20260830211326 20 323 20.9 37.0 0.00 0.00 0.00 68 1014.9
20260830210826 20 331 20.9 35.4 0.00 0.00 0.00 68 1014.9
20260830210325 20 329 20.9 33.8 0.00 0.00 0.00 68 1015.0
20260830205826 20 334 19.3 33.8 0.00 0.00 0.00 68 1015.1
20260830205325 20 322 19.3 30.6 0.00 0.00 0.00 68 1015.1
20260830204825 20 322 20.9 37.0 0.00 0.00 0.00 68 1015.1
20260830204326 20 320 19.3 37.0 0.00 0.00 0.00 68 1015.2
20260830203825 20 334 20.9 37.0 0.00 0.00 0.00 68 1015.2
20260830203325 20 12 22.5 33.8 0.00 0.00 0.00 68 1015.3
20260830202826 20 322 19.3 33.8 0.00 0.00 0.00 68 1015.4
20260830202325 20 322 20.9 33.8 0.00 0.00 0.00 68 1015.5
20260830201825 20 323 20.9 33.8 0.00 0.00 0.00 68 1015.6
20260830201326 20 326 20.9 33.8 0.00 0.00 0.00 67 1015.5
20260830200825 20 312 19.3 32.2 0.00 0.00 0.00 67 1015.5
20260830200325 20 333 19.3 32.2 0.00 0.00 0.00 66 1015.5
20260830195826 20 322 22.5 32.2 0.00 0.00 0.00 65 1015.6
20260830195325 20 320 19.3 29.0 0.00 0.00 0.00 66 1015.6
20260830194825 20 331 17.7 29.0 0.00 0.00 0.00 65 1015.7
20260830194326 20 334 19.3 29.0 0.00 0.00 0.00 65 1015.8
20260830193825 20 338 19.3 29.0 0.00 0.00 0.00 66 1015.8
20260830193325 20 310 17.7 29.0 0.00 0.00 0.00 67 1015.9
20260830192325 20 326 14.5 27.4 0.00 0.00 0.00 69 1015.8
20260830191825 20 296 14.5 22.5 0.00 0.00 0.00 69 1015.9
20260830191327 20 333 14.5 27.4 0.00 0.00 0.00 69 1015.9
20260830190825 20 327 14.5 27.4 0.00 0.00 0.00 70 1016.0
20260830190325 20 336 12.9 27.4 0.00 0.00 0.00 72 1016.0
20260830185826 20 308 17.7 25.7 0.00 0.00 0.00 70 1016.1
20260830185325 20 317 14.5 22.5 0.00 0.00 0.00 70 1016.1
20260830184825 20 301 11.3 24.1 0.00 0.00 0.00 70 1016.0
20260830184326 20 336 16.1 24.1 0.00 0.00 0.00 70 1016.1
20260830183825 20 345 11.3 24.1 0.00 0.00 0.00 71 1016.2
20260830183325 20 338 16.1 20.9 0.00 0.00 0.00 69 1016.1
20260830182826 20 336 11.3 20.9 0.00 0.00 0.00 71 1016.1
20260830182325 20 324 12.9 20.9 0.00 0.00 0.00 71 1016.2
20260830181825 20 21 16.1 16.1 0.00 0.00 0.00 71 1016.2
20260830181326 20 315 8.0 16.1 0.00 0.00 0.00 71 1016.2
20260830180825 19 336 12.9 19.3 0.00 0.00 0.00 72 1016.3
20260830180325 19 320 6.4 19.3 0.00 0.00 0.00 73 1016.3
20260830175826 19 326 9.7 19.3 0.00 0.00 0.00 73 1016.3
20260830175325 19 319 12.9 14.5 0.00 0.00 0.00 73 1016.3
20260830174826 18 336 6.4 14.5 0.00 0.00 0.00 75 1016.3
20260830174326 18 341 1.6 14.5 0.00 0.00 0.00 76 1016.3
20260830173825 18 308 3.2 14.5 0.00 0.00 0.00 77 1016.4
20260830173326 18 280 8.0 11.3 0.00 0.00 0.00 78 1016.4
20260830172826 18 306 4.8 9.7 0.00 0.00 0.00 77 1016.4
20260830172325 18 292 4.8 12.9 0.00 0.00 0.00 77 1016.4
20260830171825 17 285 6.4 12.9 0.00 0.00 0.00 77 1016.5
20260830171326 17 270 4.8 12.9 0.00 0.00 0.00 77 1016.4
20260830170825 17 295 4.8 12.9 0.00 0.00 0.00 77 1016.4
20260830170325 17 295 4.8 9.7 0.00 0.00 0.00 77 1016.4
20260830165826 17 291 6.4 9.7 0.00 0.00 0.00 78 1016.4
20260830165325 17 302 6.4 8.0 0.00 0.00 0.00 79 1016.4
20260830164825 17 312 0.0 8.0 0.00 0.00 0.00 80 1016.4
20260830164326 16 298 1.6 6.4 0.00 0.00 0.00 79 1016.4
20260830163825 16 280 0.0 4.8 0.00 0.00 0.00 81 1016.5
20260830163325 16 288 3.2 4.8 0.00 0.00 0.00 83 1016.5
20260830162826 15 296 3.2 4.8 0.00 0.00 0.00 84 1016.5
20260830162325 15 288 3.2 4.8 0.00 0.00 0.00 85 1016.5
20260830161825 14 330 0.0 4.8 0.00 0.00 0.00 87 1016.5
20260830161326 14 0 1.6 1.6 0.00 0.00 0.00 88 1016.5
20260830160825 13 0 0.0 0.0 0.00 0.00 0.00 88 1016.6
20260830160325 13 0 0.0 3.2 0.00 0.00 0.00 88 1016.6
20260830155826 12 0 0.0 3.2 0.00 0.00 0.00 88 1016.6
20260830155325 12 42 0.0 3.2 0.00 0.00 0.00 88 1016.6
20260830154825 12 0 0.0 3.2 0.00 0.00 0.00 87 1016.7
20260830154326 12 134 0.0 3.2 0.00 0.00 0.00 88 1016.7
20260830153825 12 0 0.0 0.0 0.00 0.00 0.00 88 1016.7
20260830153325 12 106 0.0 8.0 0.00 0.00 0.00 87 1016.7
20260830152826 12 113 0.0 8.0 0.00 0.00 0.00 88 1016.6
20260830152325 12 117 3.2 8.0 0.00 0.00 0.00 88 1016.6
20260830151825 12 102 3.2 6.4 0.00 0.00 0.00 88 1016.6
20260830151326 12 112 3.2 8.0 0.00 0.00 0.00 88 1016.6
20260830150825 12 106 3.2 8.0 0.00 0.00 0.00 88 1016.6
20260830150325 11 105 1.6 8.0 0.00 0.00 0.00 88 1016.6
20260830145826 11 105 1.6 11.3 0.00 0.00 0.00 88 1016.6
20260830145325 11 103 4.8 11.3 0.00 0.00 0.00 88 1016.6
20260830144825 11 107 4.8 11.3 0.00 0.00 0.00 88 1016.7
20260830144326 11 93 6.4 8.0 0.00 0.00 0.00 88 1016.7
20260830143825 11 103 3.2 9.7 0.00 0.00 0.00 88 1016.6
20260830143325 11 113 3.2 9.7 0.00 0.00 0.00 88 1016.7
20260830142826 11 127 3.2 9.7 0.00 0.00 0.00 88 1016.6
20260830142325 11 119 3.2 6.4 0.00 0.00 0.00 88 1016.6
20260830141825 11 145 1.6 9.7 0.00 0.00 0.00 88 1016.6
20260830141326 11 124 1.6 9.7 0.00 0.00 0.00 88 1016.6
20260830140825 11 107 4.8 9.7 0.00 0.00 0.00 88 1016.6
20260830140325 11 119 4.8 9.7 0.00 0.00 0.00 88 1016.7
20260830135826 11 100 6.4 9.7 0.00 0.00 0.00 88 1016.7
20260830135325 11 140 4.8 9.7 0.00 0.00 0.00 88 1016.7
20260830134828 11 116 3.2 6.4 0.00 0.00 0.00 88 1016.7
20260830134326 11 110 3.2 11.3 0.00 0.00 0.00 88 1016.7
20260830133825 11 92 3.2 11.3 0.00 0.00 0.00 88 1016.7
20260830133325 11 113 6.4 11.3 0.00 0.00 0.00 88 1016.6
20260830132826 11 107 8.0 11.3 0.00 0.00 0.00 88 1016.6
20260830132325 11 116 8.0 11.3 0.00 0.00 0.00 87 1016.6
20260830131825 11 128 6.4 9.7 0.00 0.00 0.00 87 1016.5
20260830131326 11 103 4.8 11.3 0.00 0.00 0.00 87 1016.5
20260830130825 11 112 6.4 11.3 0.00 0.00 0.00 87 1016.6
20260830130325 11 127 6.4 11.3 0.00 0.00 0.00 87 1016.5
20260830125826 11 126 9.7 11.3 0.00 0.00 0.00 88 1016.5
20260830125325 11 98 6.4 9.7 0.00 0.00 0.00 88 1016.5